Вернуться в каталог

SL-16 DEB

АктивенLEO
NORAD 28354·DEBRIS·🇷🇺 Russia

Запущен Jun 10, 2004 с Baikonur Cosmodrome

Loading…

Ближайшие Пролёты (ближайшие 24 часа)

TLE

СвежийSource: Space-Track

Эпоха: Sep 14, 2026, 13:32 UTC

1 28354U 04021C   26257.56412561  .00000149  00000-0  18673-3 0  9993
2 28354  70.9567 330.7945 0222505 229.6841 128.4631 13.69075213111507

Отслеживайте SL-16 DEB в реальном времени с AllMySat

Download on the App Store